LRBC Weather Reports


time (UTC)temp
C
wind
direction
speed
KPH
gust
KPH
rain 1hr
cm
rain 24hr
cm
rain mn
cm
humidity
%
barometer
mb
20260507040347 10 170 24.1 0.0 0.00 0.00 0.00 88 1015.0
20260507034844 10 170 22.5 0.0 0.00 0.00 0.00 88 1015.0
20260507033347 10 170 22.5 0.0 0.00 0.00 0.00 88 1015.0
20260507031844 10 170 24.1 0.0 0.00 0.00 0.00 88 1015.0
20260507030347 10 170 24.1 0.0 0.00 0.00 0.00 88 1015.0
20260507024844 11 160 22.5 0.0 0.00 0.00 0.00 82 1015.0
20260507023347 11 160 22.5 0.0 0.00 0.00 0.00 82 1015.0
20260507021847 11 160 22.5 0.0 0.00 0.00 0.00 82 1014.0
20260507020347 11 160 22.5 0.0 0.00 0.00 0.00 82 1014.0
20260507014847 11 170 20.9 0.0 0.00 0.00 0.00 77 1014.0
20260507013347 11 170 20.9 0.0 0.00 0.00 0.00 77 1014.0
20260507011847 11 170 20.9 0.0 0.00 0.00 0.00 77 1014.0
20260507010348 11 170 20.9 0.0 0.00 0.00 0.00 77 1014.0
20260507004847 12 180 20.9 0.0 0.00 0.00 0.00 77 1014.0
20260507003348 12 170 20.9 0.0 0.00 0.00 0.00 77 1014.0
20260507001847 12 170 20.9 0.0 0.00 0.00 0.00 77 1014.0
20260507000347 12 170 20.9 0.0 0.00 0.00 0.00 77 1014.0
20260506234847 12 160 22.5 0.0 0.00 0.00 0.00 77 1014.0
20260506233347 12 170 17.7 0.0 0.00 0.00 0.00 72 1015.0
20260506231845 12 170 17.7 0.0 0.00 0.00 0.00 72 1015.0
20260506230347 12 180 17.7 0.0 0.00 0.00 0.00 67 1014.0
20260506224844 12 170 20.9 0.0 0.00 0.00 0.00 72 1015.0
20260506223347 12 170 20.9 0.0 0.00 0.00 0.00 72 1015.0
20260506221847 12 170 20.9 0.0 0.00 0.00 0.00 72 1015.0
20260506220346 12 170 20.9 0.0 0.00 0.00 0.00 72 1015.0
20260506214900 13 170 20.9 0.0 0.00 0.00 0.00 67 1014.0
20260506213347 15 160 24.1 0.0 0.00 0.00 0.00 63 1014.0
20260506211841 15 160 24.1 0.0 0.00 0.00 0.00 63 1014.0
20260506210347 15 160 24.1 0.0 0.00 0.00 0.00 63 1014.0
20260506204848 16 160 24.1 0.0 0.00 0.00 0.00 55 1014.0
20260506203347 16 160 24.1 0.0 0.00 0.00 0.00 55 1014.0
20260506201841 16 160 24.1 0.0 0.00 0.00 0.00 55 1014.0
20260506200347 16 160 24.1 0.0 0.00 0.00 0.00 55 1014.0
20260506194903 17 160 25.7 0.0 0.00 0.00 0.00 52 1014.0
20260506193411 17 160 25.7 0.0 0.00 0.00 0.00 52 1014.0
20260506191848 17 160 25.7 0.0 0.00 0.00 0.00 52 1014.0
20260506190347 17 160 25.7 0.0 0.00 0.00 0.00 52 1014.0
20260506184850 18 150 24.1 0.0 0.00 0.00 0.00 49 1013.0
20260506183347 18 150 24.1 0.0 0.00 0.00 0.00 49 1013.0
20260506181847 18 150 24.1 0.0 0.00 0.00 0.00 49 1013.0
20260506180348 18 150 24.1 0.0 0.00 0.00 0.00 49 1013.0
20260506174848 20 150 25.7 0.0 0.00 0.00 0.00 46 1013.0
20260506173347 20 150 25.7 0.0 0.00 0.00 0.00 46 1013.0
20260506171848 21 150 25.7 0.0 0.00 0.00 0.00 43 1013.0
20260506170347 21 150 25.7 0.0 0.00 0.00 0.00 43 1013.0
20260506164847 22 150 25.7 0.0 0.00 0.00 0.00 41 1013.0
20260506163347 22 150 25.7 0.0 0.00 0.00 0.00 41 1013.0
20260506161848 22 150 24.1 0.0 0.00 0.00 0.00 41 1012.0
20260506160347 22 150 24.1 0.0 0.00 0.00 0.00 41 1012.0
20260506154848 23 140 25.7 0.0 0.00 0.00 0.00 36 1012.0
20260506153347 23 140 25.7 0.0 0.00 0.00 0.00 36 1012.0
20260506151847 23 150 29.0 0.0 0.00 0.00 0.00 36 1013.0
20260506150353 23 150 29.0 0.0 0.00 0.00 0.00 36 1013.0
20260506144847 23 150 29.0 0.0 0.00 0.00 0.00 34 1013.0
20260506143359 23 150 29.0 0.0 0.00 0.00 0.00 34 1013.0
20260506141847 25 150 32.2 0.0 0.00 0.00 0.00 32 1013.0
20260506140508 25 150 32.2 0.0 0.00 0.00 0.00 32 1013.0
20260506134912 25 150 32.2 0.0 0.00 0.00 0.00 32 1013.0
20260506133347 25 150 32.2 0.0 0.00 0.00 0.00 32 1013.0
20260506131847 25 160 32.2 0.0 0.00 0.00 0.00 32 1013.0
20260506130356 25 160 32.2 0.0 0.00 0.00 0.00 32 1013.0
20260506124848 25 160 32.2 0.0 0.00 0.00 0.00 34 1013.0
20260506123347 25 160 32.2 0.0 0.00 0.00 0.00 34 1013.0
20260506121848 25 160 29.0 0.0 0.00 0.00 0.00 34 1013.0
20260506120347 25 160 29.0 0.0 0.00 0.00 0.00 34 1013.0
20260506114847 25 150 27.4 0.0 0.00 0.00 0.00 32 1013.0
20260506113348 25 150 27.4 0.0 0.00 0.00 0.00 32 1013.0
20260506111847 23 150 27.4 0.0 0.00 0.00 0.00 34 1014.0
20260506110347 23 150 27.4 0.0 0.00 0.00 0.00 34 1014.0
20260506104847 23 150 25.7 0.0 0.00 0.00 0.00 34 1014.0
20260506103348 23 150 25.7 0.0 0.00 0.00 0.00 34 1014.0
20260506101848 22 150 25.7 0.0 0.00 0.00 0.00 38 1014.0
20260506100347 22 150 25.7 0.0 0.00 0.00 0.00 38 1014.0
20260506094848 22 170 27.4 0.0 0.00 0.00 0.00 41 1014.0
20260506093347 22 170 27.4 0.0 0.00 0.00 0.00 41 1014.0
20260506091847 22 160 25.7 0.0 0.00 0.00 0.00 41 1014.0
20260506090347 22 160 25.7 0.0 0.00 0.00 0.00 41 1014.0
20260506084847 21 170 22.5 0.0 0.00 0.00 0.00 46 1014.0
20260506083347 21 170 22.5 0.0 0.00 0.00 0.00 46 1014.0
20260506081844 20 170 17.7 0.0 0.00 0.00 0.00 49 1014.0
20260506080347 20 170 17.7 0.0 0.00 0.00 0.00 49 1014.0
20260506073347 17 170 14.5 0.0 0.00 0.00 0.00 56 1014.0
20260506071847 17 160 12.9 0.0 0.00 0.00 0.00 59 1014.0
20260506070347 17 160 12.9 0.0 0.00 0.00 0.00 59 1014.0
20260506061848 13 160 14.5 0.0 0.00 0.00 0.00 63 1014.0
20260506060349 13 160 14.5 0.0 0.00 0.00 0.00 63 1014.0
20260506050401 12 170 12.9 0.0 0.00 0.00 0.00 67 1014.0
20260506044903 10 170 14.5 0.0 0.00 0.00 0.00 76 1014.0
20260506043351 10 170 14.5 0.0 0.00 0.00 0.00 76 1014.0
20260506041848 8 170 11.3 0.0 0.00 0.00 0.00 82 1014.0